Regional Weather Roundup
Issued by NWS

Home | Current Version | Previous Version | Text Only | Print | Product List | Glossary Off
Versions: 1 2 3 4 5 6 7 8 9 10 11 12 13 14 15 16 17 18 19 20 21 22 23 24 25 26 27 28 29 30 31 32 33 34 35 36 37 38 39 40 41 42 43 44 45 46 47 48 49 50

000
ASUS45 KCYS 230710
RWRWY

WYOMING REGIONAL WEATHER ROUNDUP
NATIONAL WEATHER SERVICE CHEYENNE WY
100 AM MDT SAT SEP 23 2017

NOTE:  "FAIR" INDICATES FEW OR NO CLOUDS BELOW 12,000 FEET
WITH NO SIGNIFICANT WEATHER AND/OR OBSTRUCTIONS TO VISIBILITY.

WYZ001-230800-
YELLOWSTONE NATIONAL PARK

CITY           SKY/WX    TMP DP  RH WIND       PRES   REMARKS
LK YELLOWSTONE NOT AVBL
W YELLOWSTONE  NOT AVBL

$$
WYZ002>013-054>058-071-098>099-230800-
NORTHERN WYOMING

CITY           SKY/WX    TMP DP  RH WIND       PRES   REMARKS
JACKSON        CLOUDY    35  33  92 N6        30.00S WCI  30
CODY           CLOUDY    36  35  96 NE6       30.04F WCI  31
GREYBULL       CLOUDY    41  40  96 W7        30.04S
WORLAND        CLOUDY    41  40  96 CALM      30.02F
SHERIDAN       CLOUDY    42  40  92 CALM      30.04F
BUFFALO        CLOUDY    39  35  86 W5        30.04F
GILLETTE       MOCLDY    41  36  82 N9        30.02S
HULETT         CLOUDY    39  37  93 NE7       30.03F WCI  34
NEWCASTLE      FAIR      41  39  93 CALM      30.00R

$$
WYZ014>020-022>026-101>103-230800-
CENTRAL WYOMING

CITY           SKY/WX    TMP DP  RH WIND       PRES   REMARKS
BIG PINEY      MOCLDY    31  31 100 NW5       30.01S WCI  26
PINEDALE       CLOUDY    34  32  93 CALM      30.00F
DUBOIS         CLOUDY    32  32 100 CALM      29.98F
LANDER           N/A    N/A N/A N/A MISG      29.99R
RIVERTON       LGT RAIN  40  39  97 N8        30.00F WCI  34
CASPER         CLOUDY    42  38  85 N13       30.00R
DOUGLAS        MOCLDY    43  41  93 VRB3      30.01R

$$
WYZ021-027>030-104>119-230800-
SOUTHERN WYOMING

CITY           SKY/WX    TMP DP  RH WIND       PRES   REMARKS
EVANSTON       MOCLDY    35  33  92 N7        29.99S WCI  29
KEMMERER         N/A     34  32  93 CALM      30.00S
FORT BRIDGER   CLOUDY    36  36 100 S3        30.02S
ROCK SPRINGS   CLOUDY    35  33  92 S3        30.00S
DIXON          DRIZZLE   41  37  86 N10G18    30.00F
RAWLINS        CLOUDY    41  38  89 W6        29.98R
SARATOGA       PTSUNNY   41  41 100 CALM      30.02R
LARAMIE        FAIR      40  37  89 CALM      29.99R
CHEYENNE       FAIR      44  37  76 N7        29.99F
TORRINGTON     FAIR      48  38  68 CALM      29.99R
PINE BLUFFS    FAIR      46  41  81 N9G16     29.97S

$$



USA.gov is the U.S. government's official web portal to all federal, state and local government web resources and services.